Celine — HBEF — position and weather

sailwx.info

Track history (hours):
 
Tides and Currents Weather Stations Pressure Air Temp Water Temp Dewpoint Dewpoint Depression Visibility Wind Speed Wind Dir Waves Ship Positions

Celine

Last reported at 2014-Oct-23 17:31 UTC. Time now 2014-Oct-23 17:56 UTC.
Position N 53°25' E 014°37'.

Length 129 m; draft 6.3 m.

Type: Cargo ship. MMSI: 269057000.

Date/timePositionNaut miles runAvg speedWind from/ knotsBaromVisibWave heightAir tempDewpointWater temp
2014-Oct-23 17:31N 53°25' E 014°37'0 0.0
2014-Oct-23 16:33N 53°25' E 014°37'0 0.0
2014-Oct-23 15:30N 53°25' E 014°37'0 0.0
2014-Oct-23 14:30N 53°25' E 014°37'0 0.0
2014-Oct-23 13:30N 53°25' E 014°37'0 0.0
2014-Oct-23 12:31N 53°25' E 014°37'0 0.0
2014-Oct-23 11:30N 53°25' E 014°37'0 0.0
2014-Oct-23 10:30N 53°25' E 014°37'0 0.0
2014-Oct-23 09:34N 53°25' E 014°37'0 0.0
2014-Oct-23 08:33N 53°25' E 014°37'0 0.0
2014-Oct-23 07:33N 53°25' E 014°37'0 0.0
2014-Oct-23 06:33N 53°25' E 014°37'0 0.0
2014-Oct-23 05:33N 53°25' E 014°37'0 0.0
2014-Oct-23 04:33N 53°25' E 014°37'0 0.0
2014-Oct-23 03:34N 53°25' E 014°37'0 0.0
2014-Oct-23 02:33N 53°25' E 014°37'0 0.0
2014-Oct-23 01:33N 53°25' E 014°37'0 0.0
2014-Oct-23 00:33N 53°25' E 014°37'0 0.0
2014-Oct-22 23:33N 53°25' E 014°37'0 0.0
2014-Oct-22 22:33N 53°25' E 014°37'0 0.0
2014-Oct-22 21:33N 53°25' E 014°37'0 0.0
2014-Oct-22 20:33N 53°25' E 014°37'0 0.0
2014-Oct-22 19:33N 53°25' E 014°37'0 0.0
2014-Oct-22 18:33N 53°25' E 014°37'0 0.0
2014-Oct-22 17:33N 53°25' E 014°37'0 0.0
2014-Oct-22 16:33N 53°25' E 014°37'0 0.0
2014-Oct-22 15:33N 53°25' E 014°37'0 0.0
2014-Oct-22 14:33N 53°25' E 014°37'0 0.0
2014-Oct-22 13:33N 53°25' E 014°37'0 0.0
2014-Oct-22 12:33N 53°25' E 014°37'0 0.0
2014-Oct-22 11:33N 53°25' E 014°37'0 0.0
2014-Oct-22 10:33N 53°25' E 014°37'0 0.0
2014-Oct-22 09:33N 53°25' E 014°37'0 0.0
2014-Oct-22 08:33N 53°25' E 014°37'0 0.0
2014-Oct-22 07:33N 53°25' E 014°37'0 0.0
2014-Oct-22 06:33N 53°25' E 014°37'0 0.0
2014-Oct-22 05:33N 53°25' E 014°37'0 0.2
2014-Oct-22 04:33N 53°25' E 014°37'7 7.0
2014-Oct-22 03:33N 53°32' E 014°38'9 9.3
2014-Oct-22 02:33N 53°40' E 014°31'1111.3
2014-Oct-22 01:33N 53°49' E 014°20'6 6.5
2014-Oct-22 00:33N 53°55' E 014°17'47 9.3
2014-Oct-21 19:32N 54°37' E 014°54'1413.5
2014-Oct-21 18:28N 54°39' E 015°18'7813.2
2014-Oct-21 12:33N 54°56' E 017°31'1312.9
2014-Oct-21 11:33N 54°59' E 017°53'1312.9
2014-Oct-21 10:33N 54°59' E 018°15'1313.1
2014-Oct-21 09:33N 54°58' E 018°38'1313.0
2014-Oct-21 08:33N 54°56' E 019°00'1313.5
2014-Oct-21 07:33N 54°49' E 019°21'1313.1
2014-Oct-21 06:33N 54°43' E 019°41'10 9.4
2014-Oct-21 05:31N 54°38' E 019°55'0 0.2
2014-Oct-21 04:28N 54°38' E 019°55'0 0.0
2014-Oct-21 03:31N 54°38' E 019°55'0 0.0
2014-Oct-21 02:31N 54°38' E 019°55'0 0.0
2014-Oct-21 01:31N 54°38' E 019°55'0 0.0
2014-Oct-21 00:28N 54°38' E 019°55'0 0.0
2014-Oct-20 23:31N 54°38' E 019°55'0 0.0
2014-Oct-20 22:31N 54°38' E 019°55'0 0.0
2014-Oct-20 21:30N 54°38' E 019°55'0 0.0
2014-Oct-20 20:31N 54°38' E 019°55'2 1.8
2014-Oct-20 19:09N 54°39' E 019°51'2 3.1
2014-Oct-20 18:29N 54°40' E 019°48'1 0.7
2014-Oct-20 17:33N 54°39' E 019°49'0 0.0
2014-Oct-20 16:33N 54°39' E 019°49'0 0.0
2014-Oct-20 15:33N 54°39' E 019°49'0 0.0
2014-Oct-20 14:33N 54°39' E 019°49'0 0.1
2014-Oct-20 13:33N 54°39' E 019°49'0 0.0
2014-Oct-20 12:27N 54°39' E 019°49'0 0.1
2014-Oct-20 11:33N 54°39' E 019°49'0 0.0
2014-Oct-20 10:33N 54°39' E 019°49'0 0.0
2014-Oct-20 09:27N 54°39' E 019°49'0 0.0
2014-Oct-20 08:33N 54°39' E 019°49'0 0.0
2014-Oct-20 07:33N 54°39' E 019°49'6 6.4
2014-Oct-20 06:33N 54°43' E 019°40'10 9.7
2014-Oct-20 05:33N 54°52' E 019°34'1010.3
2014-Oct-20 04:33N 55°02' E 019°35'1110.4
2014-Oct-20 03:30N 55°13' E 019°36'  
2014-Oct-14 04:31N 57°29' E 017°49'1212.8
2014-Oct-14 03:33N 57°18' E 017°39'1312.7
2014-Oct-14 02:33N 57°06' E 017°31'7412.0
2014-Oct-13 20:23N 55°59' E 016°33'1012.3
2014-Oct-13 19:33N 55°54' E 016°17'  
Track history (hours):
 
Tides and Currents Weather Stations Pressure Air Temp Water Temp Dewpoint Dewpoint Depression Visibility Wind Speed Wind Dir Waves Ship Positions

Celine

Last reported at 2014-Oct-23 17:31 UTC. Time now 2014-Oct-23 17:56 UTC.
Position N 53°25' E 014°37'.

Length 129 m; draft 6.3 m.

Type: Cargo ship. MMSI: 269057000.

Date/timePositionNaut miles runAvg speedWind from/ knotsBaromVisibWave heightAir tempDewpointWater temp
2014-Oct-23 17:31N 53°25' E 014°37'0 0.0
2014-Oct-23 16:33N 53°25' E 014°37'0 0.0
2014-Oct-23 15:30N 53°25' E 014°37'0 0.0
2014-Oct-23 14:30N 53°25' E 014°37'0 0.0
2014-Oct-23 13:30N 53°25' E 014°37'0 0.0
2014-Oct-23 12:31N 53°25' E 014°37'0 0.0
2014-Oct-23 11:30N 53°25' E 014°37'0 0.0
2014-Oct-23 10:30N 53°25' E 014°37'0 0.0
2014-Oct-23 09:34N 53°25' E 014°37'0 0.0
2014-Oct-23 08:33N 53°25' E 014°37'0 0.0
2014-Oct-23 07:33N 53°25' E 014°37'0 0.0
2014-Oct-23 06:33N 53°25' E 014°37'0 0.0
2014-Oct-23 05:33N 53°25' E 014°37'0 0.0
2014-Oct-23 04:33N 53°25' E 014°37'0 0.0
2014-Oct-23 03:34N 53°25' E 014°37'0 0.0
2014-Oct-23 02:33N 53°25' E 014°37'0 0.0
2014-Oct-23 01:33N 53°25' E 014°37'0 0.0
2014-Oct-23 00:33N 53°25' E 014°37'0 0.0
2014-Oct-22 23:33N 53°25' E 014°37'0 0.0
2014-Oct-22 22:33N 53°25' E 014°37'0 0.0
2014-Oct-22 21:33N 53°25' E 014°37'0 0.0
2014-Oct-22 20:33N 53°25' E 014°37'0 0.0
2014-Oct-22 19:33N 53°25' E 014°37'0 0.0
2014-Oct-22 18:33N 53°25' E 014°37'0 0.0
2014-Oct-22 17:33N 53°25' E 014°37'0 0.0
2014-Oct-22 16:33N 53°25' E 014°37'0 0.0
2014-Oct-22 15:33N 53°25' E 014°37'0 0.0
2014-Oct-22 14:33N 53°25' E 014°37'0 0.0
2014-Oct-22 13:33N 53°25' E 014°37'0 0.0
2014-Oct-22 12:33N 53°25' E 014°37'0 0.0
2014-Oct-22 11:33N 53°25' E 014°37'0 0.0
2014-Oct-22 10:33N 53°25' E 014°37'0 0.0
2014-Oct-22 09:33N 53°25' E 014°37'0 0.0
2014-Oct-22 08:33N 53°25' E 014°37'0 0.0
2014-Oct-22 07:33N 53°25' E 014°37'0 0.0
2014-Oct-22 06:33N 53°25' E 014°37'0 0.0
2014-Oct-22 05:33N 53°25' E 014°37'0 0.2
2014-Oct-22 04:33N 53°25' E 014°37'7 7.0
2014-Oct-22 03:33N 53°32' E 014°38'9 9.3
2014-Oct-22 02:33N 53°40' E 014°31'1111.3
2014-Oct-22 01:33N 53°49' E 014°20'6 6.5
2014-Oct-22 00:33N 53°55' E 014°17'47 9.3
2014-Oct-21 19:32N 54°37' E 014°54'1413.5
2014-Oct-21 18:28N 54°39' E 015°18'7813.2
2014-Oct-21 12:33N 54°56' E 017°31'1312.9
2014-Oct-21 11:33N 54°59' E 017°53'1312.9
2014-Oct-21 10:33N 54°59' E 018°15'1313.1
2014-Oct-21 09:33N 54°58' E 018°38'1313.0
2014-Oct-21 08:33N 54°56' E 019°00'1313.5
2014-Oct-21 07:33N 54°49' E 019°21'1313.1
2014-Oct-21 06:33N 54°43' E 019°41'10 9.4
2014-Oct-21 05:31N 54°38' E 019°55'0 0.2
2014-Oct-21 04:28N 54°38' E 019°55'0 0.0
2014-Oct-21 03:31N 54°38' E 019°55'0 0.0
2014-Oct-21 02:31N 54°38' E 019°55'0 0.0
2014-Oct-21 01:31N 54°38' E 019°55'0 0.0
2014-Oct-21 00:28N 54°38' E 019°55'0 0.0
2014-Oct-20 23:31N 54°38' E 019°55'0 0.0
2014-Oct-20 22:31N 54°38' E 019°55'0 0.0
2014-Oct-20 21:30N 54°38' E 019°55'0 0.0
2014-Oct-20 20:31N 54°38' E 019°55'2 1.8
2014-Oct-20 19:09N 54°39' E 019°51'2 3.1
2014-Oct-20 18:29N 54°40' E 019°48'1 0.7
2014-Oct-20 17:33N 54°39' E 019°49'0 0.0
2014-Oct-20 16:33N 54°39' E 019°49'0 0.0
2014-Oct-20 15:33N 54°39' E 019°49'0 0.0
2014-Oct-20 14:33N 54°39' E 019°49'0 0.1
2014-Oct-20 13:33N 54°39' E 019°49'0 0.0
2014-Oct-20 12:27N 54°39' E 019°49'0 0.1
2014-Oct-20 11:33N 54°39' E 019°49'0 0.0
2014-Oct-20 10:33N 54°39' E 019°49'0 0.0
2014-Oct-20 09:27N 54°39' E 019°49'0 0.0
2014-Oct-20 08:33N 54°39' E 019°49'0 0.0
2014-Oct-20 07:33N 54°39' E 019°49'6 6.4
2014-Oct-20 06:33N 54°43' E 019°40'10 9.7
2014-Oct-20 05:33N 54°52' E 019°34'1010.3
2014-Oct-20 04:33N 55°02' E 019°35'1110.4
2014-Oct-20 03:30N 55°13' E 019°36'  
2014-Oct-14 04:31N 57°29' E 017°49'1212.8
2014-Oct-14 03:33N 57°18' E 017°39'1312.7
2014-Oct-14 02:33N 57°06' E 017°31'7412.0
2014-Oct-13 20:23N 55°59' E 016°33'1012.3
2014-Oct-13 19:33N 55°54' E 016°17'  

Dump ship's entire track history